Location: La Junie
(44.7428°N, 2.1773°E)
Time: 20:08:12
(UTC+00:00)

Geosat - Pass Details

Date: 15 May 2026
Orbit: 758 x 760 km, 108.0° (Epoch: 8 June)

Event Time Altitude Azimuth Distance (km) Brightness Sun altitude
Rises 22:27:07 0° 26° (NNE) 3,229 7.9 -23.6°
Reaches altitude 10° 22:29:24 10° 26° (NNE) 2,299 7.0 -23.8°
Maximum altitude 22:34:25 82° 299° (WNW) 773 3.9 -24.1°
Enters shadow 22:35:38 52° 220° (SW) 938 4.2 -24.1°
